Weather History for KCNK - February, 2015

Change the Weather History Date:

Friday, February 13, 2015

  Actual Average Record
Temperature  
Mean Temperature 39 °F 32 °F  
Max Temperature 58 °F 43 °F 72 °F (1921)
Min Temperature 20 °F 22 °F -21 °F (1905)
Degree Days  
Heating Degree Days 26 33  
Month to date heating degree days 411 446  
Since 1 July heating degree days 3576 3750  
Cooling Degree Days 0 0  
Month to date cooling degree days 0 0  
Year to date cooling degree days 0 0  
Moisture  
Dew Point 23 °F    
Average Humidity 57    
Maximum Humidity 77    
Minimum Humidity 36    
Precipitation  
Precipitation 0.00 in 0.03 in 0.84 in (1911)
Month to date precipitation 0.17 0.34  
Year to date precipitation 1.34 0.92  
Snow  
Snow 0.00 in 0.20 in 3.10 in (1978)
Month to date snowfall 0.9 2.8  
Year to date snowfall 3.2 8.5  
Since 1 July snowfall 9.3 15.0  
Snow Depth 0.00 in    
Sea Level Pressure  
Sea Level Pressure 30.20 in    
Wind  
Wind Speed 9 mph (WSW)    
Max Wind Speed 18 mph    
Max Gust Speed 24 mph    
Visibility 10 miles    
Events      
T = Trace of Precipitation, MM = Missing Value Source: NWS Daily Summary

Daily Weather History Graph

Daily Weather History Graph

Search for Another Location

Airport or City:

Trip Planner

Search our weather history database for the weather conditions in past years. The results will help you decide how hot, cold, wet, or windy it might be!

Date:

Astronomy

Feb. 13, 2015 Rise Set
Actual Time 7:25 AM CST 6:04 PM CST
Civil Twilight 6:57 AM CST 6:32 PM CST
Nautical Twilight 6:26 AM CST 7:03 PM CST
Astronomical Twilight 5:55 AM CST 7:35 PM CST
Moon 2:29 AM CST (2/13) 12:47 PM CST (2/13)
Length of Visible Light 11h 34m
Length of Day
10h 39m
Waning Crescent, 34% of the Moon is Illuminated
Feb 13
Waning Crescent
Feb 18
New
Feb 25
First Quarter
Mar 5
Full
Mar 13
Last Quarter

Hourly Weather History & Observations

Time (CST) Temp. Windchill Dew Point Humidity Pressure Visibility Wind Dir Wind Speed Gust Speed Precip Events Conditions
12:55 AM 21.9 °F 11.7 °F 10.9 °F 63% 30.27 in 10.0 mi SSE 9.2 mph - N/A   Clear
1:55 AM 21.9 °F 11.0 °F 10.9 °F 63% 30.26 in 10.0 mi SSE 10.4 mph - N/A   Clear
2:55 AM 21.9 °F 10.4 °F 10.9 °F 63% 30.24 in 10.0 mi SSE 11.5 mph - N/A   Clear
3:55 AM 21.9 °F 13.4 °F 10.9 °F 63% 30.23 in 10.0 mi SSE 6.9 mph - N/A   Clear
4:55 AM 21.0 °F 14.6 °F 12.0 °F 68% 30.22 in 10.0 mi South 4.6 mph - N/A   Clear
5:55 AM 21.0 °F 14.6 °F 12.0 °F 68% 30.22 in 10.0 mi South 4.6 mph - N/A   Clear
6:55 AM 21.0 °F - 12.9 °F 71% 30.23 in 10.0 mi Calm Calm - N/A   Clear
7:55 AM 21.9 °F 17.2 °F 15.1 °F 75% 30.24 in 10.0 mi West 3.5 mph - N/A   Clear
8:55 AM 24.1 °F 16.0 °F 16.0 °F 71% 30.25 in 10.0 mi West 6.9 mph - N/A   Clear
9:55 AM 28.9 °F 19.8 °F 17.1 °F 61% 30.25 in 10.0 mi WNW 10.4 mph - N/A   Clear
10:55 AM 37.0 °F 30.4 °F 21.0 °F 52% 30.25 in 10.0 mi WNW 9.2 mph - N/A   Clear
11:55 AM 45.0 °F 39.7 °F 25.0 °F 46% 30.23 in 10.0 mi NW 10.4 mph 17.3 mph N/A   Clear
12:55 PM 50.0 °F - 28.0 °F 43% 30.21 in 10.0 mi North 11.5 mph - N/A   Clear
1:55 PM 54.0 °F - 30.0 °F 40% 30.19 in 10.0 mi NNW 11.5 mph - N/A   Clear
2:55 PM 55.4 °F - 30.2 °F 38% 30.14 in 10.0 mi NW 9.2 mph - N/A   Clear
3:55 PM 57.0 °F - 30.9 °F 37% 30.16 in 10.0 mi NW 12.7 mph - N/A   Clear
4:55 PM 57.0 °F - 30.9 °F 37% 30.16 in 10.0 mi NNW 9.2 mph - N/A   Clear
5:55 PM 53.1 °F - 30.9 °F 43% 30.17 in 10.0 mi WNW 3.5 mph - N/A   Clear
6:55 PM 46.9 °F - 30.0 °F 52% 30.17 in 10.0 mi SW 4.6 mph - N/A   Clear
7:55 PM 45.0 °F 40.1 °F 30.0 °F 56% 30.17 in 10.0 mi SW 9.2 mph - N/A   Clear
8:55 PM 45.0 °F 40.1 °F 30.9 °F 58% 30.17 in 10.0 mi SW 9.2 mph - N/A   Clear
9:55 PM 44.1 °F 38.6 °F 30.0 °F 58% 30.16 in 10.0 mi SW 10.4 mph - N/A   Clear
10:55 PM 45.0 °F 38.9 °F 30.9 °F 58% 30.14 in 10.0 mi SW 12.7 mph - N/A   Clear
11:55 PM 46.9 °F - 30.0 °F 52% 30.11 in 10.0 mi SW 15.0 mph - N/A   Clear